Location: Newark
(25.0000°N, 73.5000°E)
Time: 03:55:15
(UTC+00:00)

Altair - Pass Details

Date: 08 March 2021
Orbit: 1501 x 1683 km, 47.2° (Epoch: 12 April)

Event Time Altitude Azimuth Distance (km) Brightness Sun altitude
Rises 21:14:57 0° 298° (WNW) 4,789 - -55.0°
Reaches altitude 10° 21:18:36 10° 287° (WNW) 3,830 - -54.3°
Maximum altitude 21:26:24 28° 234° (SW) 2,735 - -52.7°
Drops below altitude 10° 21:34:25 10° 180° (S) 3,916 - -51.1°
Sets 21:38:15 0° 169° (SSE) 4,914 - -50.3°
